Weather in Seoul

South Korea     37°34′14″N   126°58′36″E
В апреле 2022 года жителям России запретили посещать сайт meteo.paraplan.net по решению Генеральной прокуратуры. Аудитория сайта уменьшилась в 10 раз. Владельцы сайта не видят смысла в поддержке погодного сервера в таких условиях. Сайт будет закрыт в октябре.
temp.,
°C
wind,
m/s
gust,
m/s
humid.,
%
clouds,
%
prec.,
mm/h
press.,
hPa
HPBL,
m
30 september, fri
fri3000:00+19sse00500 0.0 101612
03:00+18e00550 0.0 101711
06:00+17e11590 0.0 101717
09:00+20ene11470 0.0 1017320
12:00+26w11304 0.0 1016839
15:00+28w222396 0.0 10151386
18:00+24w34364 0.0 1015465
21:00+21w12482 0.0 1016112
1 october, sat
sat100:00+20wsw11550 0.0 101712
03:00+19nne11600 0.0 101711
06:00+17e11640 0.0 101813
09:00+21nne01510 0.0 1019307
12:00+26wnw1230100 0.0 1018877
15:00+28wnw212293 0.0 10161234
18:00+25wnw233394 0.0 1017233
21:00+23wsw0043100 0.0 101713
2 october, sun
sun200:00+22e1145100 0.0 101725
03:00+21e1148100 0.0 101727
06:00+20e2251100 0.0 101798
09:00+20ene2252100 0.0 1019111
12:00+21ene2748100 0.0 1017234
15:00+22ese2739100 0.0 10161194
18:00+18e3971100 1.6 1017529
21:00+17e41173100 2.1 1017631
3 october, mon
mon300:00+17e31075100 0.6 1017510
03:00+17e2876100 0.8 1016386
06:00+17e3582100 0.4 1016215
09:00+17ese2588100 1.9 1015200
12:00+18se2592100 1.6 1014242
15:00+19sse2998100 5.6 1012578
18:00+21ssw51493100 3.2 1011962
21:00+22ssw61595100 6.8 1010939
4 october, tue
tue400:00+21ssw71796100 6.3 10081170
03:00+20w5996100 27.9 1007653
06:00+18wnw41092100 3.9 1009550
09:00+15wnw477589 4.0 1012504
12:00+17wnw6756100 0.0 1013789
15:00+18wnw684737 0.0 1013982
18:00+14nw5750100 0.0 1016817
21:00+12nw4648100 0.0 1018610